FW5198 Weather Reports


Display with metric or nautical units.
time (UTC)temp
F
wind
direction
speed
MPH
gust
MPH
rain 1hr
in
rain 24hr
in
rain mn
in
humidity
%
barometer
mb
20260902031549 76 0 0.0 1.0 0.00 0.00 0.00 92 1018.5
20260902030054 76 0 0.0 1.0 0.00 0.00 0.00 92 1018.6
20260902024555 77 0 0.0 0.0 0.00 0.00 0.00 91 1018.7
20260902023048 77 0 0.0 1.0 0.00 0.00 0.00 91 1018.7
20260902021552 78 0 0.0 1.0 0.00 0.00 0.00 89 1018.6
20260902020044 78 0 0.0 0.0 0.00 0.00 0.00 90 1018.6
20260902014550 79 48 0.0 1.0 0.00 0.00 0.00 89 1018.4
20260902013047 79 0 0.0 1.0 0.00 0.00 0.00 88 1018.4
20260902011548 80 0 0.0 0.0 0.00 0.00 0.00 87 1018.1
20260902010057 81 48 0.0 1.0 0.00 0.00 0.00 85 1018.1
20260902004559 82 0 0.0 1.0 0.00 0.00 0.00 84 1018.0
20260902003053 83 0 0.0 1.0 0.00 0.00 0.00 82 1018.1
20260902001549 84 0 0.0 1.0 0.00 0.00 0.00 80 1018.0
20260902000047 86 0 0.0 1.0 0.00 0.00 0.00 78 1018.0
20260901234545 88 0 0.0 1.0 0.00 0.00 0.00 74 1018.0
20260901233050 90 46 0.0 1.0 0.00 0.00 0.00 69 1018.1
20260901231548 92 44 0.0 2.0 0.00 0.00 0.00 60 1018.3
20260901230050 94 44 1.0 4.0 0.00 0.00 0.00 55 1018.1
20260901224547 94 67 0.0 4.0 0.00 0.00 0.00 56 1018.2
20260901223050 94 72 1.0 4.0 0.00 0.00 0.00 55 1018.2
20260901221546 94 57 1.0 4.0 0.00 0.00 0.00 53 1018.2
20260901220100 94 39 2.0 6.0 0.00 0.00 0.00 53 1018.2
20260901214552 94 82 1.0 5.0 0.00 0.00 0.00 52 1018.1
20260901213109 94 51 2.0 7.0 0.00 0.00 0.00 53 1018.1
20260901211548 94 82 3.0 7.0 0.00 0.00 0.00 53 1018.1
20260901210044 95 27 2.0 8.0 0.00 0.00 0.00 51 1018.2
20260901204551 95 28 3.0 7.0 0.00 0.00 0.00 51 1018.3
20260901203048 95 29 2.0 5.0 0.00 0.00 0.00 50 1018.4
20260901201547 95 32 3.0 7.0 0.00 0.00 0.00 51 1018.5
20260901200049 95 89 2.0 6.0 0.00 0.00 0.00 51 1018.7
20260901194549 96 44 2.0 7.0 0.00 0.00 0.00 50 1018.8
20260901193048 95 29 2.0 8.0 0.00 0.00 0.00 51 1019.0
20260901191550 94 56 3.0 6.0 0.00 0.00 0.00 53 1019.2
20260901190057 94 26 2.0 7.0 0.00 0.00 0.00 53 1019.4
20260901184550 93 360 3.0 7.0 0.00 0.00 0.00 56 1019.4
20260901183054 93 30 3.0 8.0 0.00 0.00 0.00 54 1019.6
20260901181549 94 4 2.0 5.0 0.00 0.00 0.00 56 1019.6
20260901180048 94 330 3.0 7.0 0.00 0.00 0.00 57 1019.8
20260901174544 92 12 2.0 7.0 0.00 0.00 0.00 60 1020.0
20260901173051 92 39 3.0 6.0 0.00 0.00 0.00 59 1020.4
20260901171605 92 26 2.0 8.0 0.00 0.00 0.00 60 1020.6
20260901170059 91 89 2.0 6.0 0.00 0.00 0.00 62 1020.7
20260901164553 91 57 2.0 8.0 0.00 0.00 0.00 62 1020.9
20260901163053 91 105 1.0 7.0 0.00 0.00 0.00 61 1021.0
20260901161549 90 0 1.0 6.0 0.00 0.00 0.00 63 1021.0
20260901160047 90 52 3.0 8.0 0.00 0.00 0.00 65 1021.1
20260901154547 89 34 3.0 7.0 0.00 0.00 0.00 68 1021.1
20260901153054 88 45 2.0 5.0 0.00 0.00 0.00 70 1021.1
20260901151543 88 36 1.0 6.0 0.00 0.00 0.00 70 1021.1
20260901150053 87 45 3.0 6.0 0.00 0.00 0.00 71 1021.1
20260901144548 86 56 2.0 5.0 0.00 0.00 0.00 73 1021.1
20260901143048 85 56 2.0 6.0 0.00 0.00 0.00 76 1021.1
20260901141546 84 36 1.0 4.0 0.00 0.00 0.00 77 1021.0
20260901140052 82 34 1.0 5.0 0.00 0.00 0.00 81 1021.0
20260901134610 80 37 1.0 4.0 0.00 0.00 0.00 83 1021.0
20260901133055 79 25 1.0 3.0 0.00 0.00 0.00 86 1021.0
20260901131547 77 0 0.0 0.0 0.00 0.00 0.00 89 1021.0
20260901130050 75 0 0.0 0.0 0.00 0.00 0.00 92 1021.0
20260901124554 74 0 0.0 0.0 0.00 0.00 0.00 95 1020.8
20260901123047 72 0 0.0 0.0 0.00 0.00 0.00 97 1020.7
20260901121547 71 0 0.0 0.0 0.00 0.00 0.00 98 1020.5
20260901120052 71 0 0.0 0.0 0.00 0.00 0.00 98 1020.3
20260901114558 71 0 0.0 0.0 0.00 0.00 0.00 98 1020.1
20260901113047 71 0 0.0 0.0 0.00 0.00 0.00 97 1020.0
20260901111548 71 0 0.0 0.0 0.00 0.00 0.00 97 1019.8
20260901110054 71 0 0.0 0.0 0.00 0.00 0.00 97 1019.7
20260901104547 71 0 0.0 0.0 0.00 0.00 0.00 97 1019.6
20260901103103 71 0 0.0 0.0 0.00 0.00 0.00 97 1019.5
20260901101553 71 0 0.0 0.0 0.00 0.00 0.00 97 1019.5
20260901100050 71 0 0.0 0.0 0.00 0.00 0.00 97 1019.5
20260901094543 71 0 0.0 0.0 0.00 0.00 0.00 97 1019.4
20260901093050 72 0 0.0 0.0 0.00 0.00 0.00 97 1019.2
20260901091553 72 0 0.0 0.0 0.00 0.00 0.00 97 1019.2
20260901090047 72 0 0.0 0.0 0.00 0.00 0.00 97 1019.2
20260901084552 72 0 0.0 0.0 0.00 0.00 0.00 97 1019.1
20260901083049 72 0 0.0 0.0 0.00 0.00 0.00 97 1019.1
20260901081548 72 0 0.0 0.0 0.00 0.00 0.00 96 1019.0
20260901080053 72 0 0.0 0.0 0.00 0.00 0.00 97 1019.0
20260901074600 72 0 0.0 0.0 0.00 0.00 0.00 96 1018.9
20260901073047 73 0 0.0 0.0 0.00 0.00 0.00 96 1018.9
20260901071552 73 0 0.0 0.0 0.00 0.00 0.00 96 1018.9
20260901070048 73 0 0.0 0.0 0.00 0.00 0.00 96 1019.0
20260901064547 73 0 0.0 0.0 0.00 0.00 0.00 96 1018.9
20260901063049 73 0 0.0 0.0 0.00 0.00 0.00 95 1019.0
20260901061551 73 0 0.0 0.0 0.00 0.00 0.00 96 1019.2
20260901060058 74 0 0.0 0.0 0.00 0.00 0.00 95 1019.2
20260901054552 74 0 0.0 0.0 0.00 0.00 0.00 95 1019.2
20260901053052 74 0 0.0 0.0 0.00 0.00 0.00 95 1019.1
20260901051545 74 0 0.0 0.0 0.00 0.00 0.00 95 1019.2
20260901050052 74 0 0.0 0.0 0.00 0.00 0.00 94 1019.1
20260901044548 74 0 0.0 0.0 0.00 0.00 0.00 94 1019.2
20260901043050 75 0 0.0 0.0 0.00 0.00 0.00 94 1019.2
20260901041548 75 0 0.0 1.0 0.00 0.00 0.00 94 1019.2
20260901040110 76 0 0.0 0.0 0.00 0.00 0.00 94 1019.4
20260901034550 76 0 0.0 0.0 0.00 0.00 0.00 94 1019.3
20260901033048 76 0 0.0 1.0 0.00 0.00 0.00 93 1019.2